Terminal Aerodrome Forecast
Issued by NWS Tulsa, OK

Home | Current Version | Previous Version | Text Only | Print | Product List | Glossary On
Versions: 1 2 3 4 5 6 7 8 9 10 11 12 13 14 15 16
000
FTPQ31 PGUM 200204 AAM
TAFTSA
TAF AMD
PTSA 200204Z 2002/2024 14008KT P6SM VCSH BKN018 BKN130
     FM200700 12010KT P6SM VCSH BKN015 BKN130
      TEMPO 2007/2011 4SM SHRA OVC015=

USA.gov is the U.S. government's official web portal to all federal, state and local government web resources and services.